Sanders, Before Seed, Beyond Harvest
OptiGro Location.

Weather

  • Currently

    Reported at
    UNKNOWN
  • N/AN/A
  • Fair
    Fair
  • Feels Like:N/AN/ADew Point:°F°CHumidity:N/A Winds: Calm Calm
    Pressure:Visibility:
Time Weather Temp Dew Point
Humidity Winds Visibility Pressure Precipitation
1 hr 24 hr
Saturday, January 18
18:55 18:55 Partly Cloudy Partly Cloudy 58°F14°C 51°F11°C 78% NNW 9 mphNNW 15 kph 10.0 miles16.1 km 30.18 in1022 hPa 0.00 in0.00 mm --
18:35 18:35 Clear Clear 58°F15°C 52°F11°C 79% NNW 7 mphNNW 11 kph 10.0 miles16.1 km 30.18 in1022 hPa 0.00 in0.00 mm --
18:15 18:15 Sunny Sunny 59°F15°C 52°F11°C 77% NNW 8 mphNNW 13 kph 10.0 miles16.1 km 30.15 in1021 hPa 0.00 in0.00 mm --
17:55 17:55 Sunny Sunny 60°F16°C 51°F11°C 73% NW 9 mphNW 15 kph 10.0 miles16.1 km 30.15 in1021 hPa 0.00 in0.00 mm --
17:35 17:35 Sunny Sunny 61°F16°C 52°F11°C 73% NNW 12 mphNNW 19 kph 10.0 miles16.1 km 30.15 in1021 hPa 0.00 in0.00 mm --
17:15 17:15 Partly Cloudy Partly Cloudy 62°F16°C 53°F12°C 73% NNW 13 mphNNW 20 kph 10.0 miles16.1 km 30.12 in1020 hPa 0.00 in0.00 mm --
16:55 16:55 Partly Cloudy Partly Cloudy 63°F17°C 53°F12°C 71% NW 16 mphNW 26 kph 10.0 miles16.1 km 30.12 in1020 hPa 0.00 in0.00 mm --
16:35 16:35 Sunny Sunny 64°F18°C 53°F12°C 70% NW 14 mphNW 22 kph 10.0 miles16.1 km 30.12 in1020 hPa 0.00 in0.00 mm --
16:15 16:15 Partly Cloudy Partly Cloudy 64°F18°C 56°F13°C 76% NNW 14 mphNNW 22 kph 10.0 miles16.1 km 30.12 in1020 hPa 0.00 in0.00 mm --
15:55 15:55 Cloudy Cloudy 64°F18°C 55°F13°C 74% NNW 14 mphNNW 22 kph 10.0 miles16.1 km 30.09 in1019 hPa 0.00 in0.00 mm --
15:35 15:35 Cloudy Cloudy 63°F17°C 58°F14°C 84% NW 13 mphNW 20 kph 10.0 miles16.1 km 30.12 in1020 hPa 0.00 in0.00 mm --
15:15 15:15 Cloudy Cloudy 63°F17°C 59°F15°C 87% NW 10 mphNW 17 kph 10.0 miles16.1 km 30.09 in1019 hPa 0.00 in0.00 mm --
14:55 14:55 Cloudy Cloudy 63°F17°C 62°F17°C 99% WNW 5 mphWNW 7 kph 10.0 miles16.1 km 30.09 in1019 hPa 0.00 in0.00 mm --
14:35 14:35 Cloudy With Light Rain Cloudy With Light Rain 63°F17°C 62°F17°C 99% NW 10 mphNW 17 kph 10.0 miles16.1 km 30.12 in1020 hPa 0.00 in0.00 mm --
14:15 14:15 Cloudy With Light Rain Cloudy With Light Rain 62°F17°C 62°F17°C 100% WNW 10 mphWNW 17 kph 10.0 miles16.1 km 30.12 in1020 hPa 0.00 in0.00 mm --
13:55 13:55 Cloudy Cloudy 64°F18°C 64°F18°C 100% WSW 14 mphWSW 22 kph 10.0 miles16.1 km 30.12 in1020 hPa 0.00 in0.00 mm --
13:35 13:35 Cloudy With Light Drizzle Cloudy With Light Drizzle 64°F18°C 64°F18°C 100% SW 13 mphSW 20 kph 5.0 miles8.0 km 30.12 in1020 hPa 0.00 in0.00 mm --
13:15 13:15 Cloudy With Light Rain Cloudy With Light Rain 64°F18°C 64°F18°C 100% SW 13 mphSW 20 kph 10.0 miles16.1 km 30.12 in1020 hPa 0.00 in0.00 mm --
12:55 12:55 Cloudy Cloudy 65°F18°C 65°F18°C 100% SW 15 mphSW 24 kph 10.0 miles16.1 km 30.12 in1020 hPa 0.00 in0.00 mm --
12:35 12:35 Cloudy Cloudy 64°F18°C 64°F18°C 100% SSW 13 mphSSW 20 kph 10.0 miles16.1 km 30.12 in1020 hPa 0.00 in0.00 mm --
12:15 12:15 Cloudy Cloudy 64°F18°C 64°F18°C 100% SSW 15 mphSSW 24 kph 10.0 miles16.1 km 30.12 in1020 hPa 0.00 in0.00 mm --
11:55 11:55 Cloudy Cloudy 64°F18°C 64°F18°C 100% SSW 16 mphSSW 26 kph 10.0 miles16.1 km 30.12 in1020 hPa 0.00 in0.00 mm --
11:35 11:35 Cloudy Cloudy 64°F18°C 64°F18°C 100% SSW 16 mphSSW 26 kph 10.0 miles16.1 km 30.15 in1021 hPa 0.00 in0.00 mm --
11:15 11:15 Cloudy Cloudy 62°F16°C 62°F16°C 100% S 13 mphS 20 kph 10.0 miles16.1 km 30.15 in1021 hPa 0.00 in0.00 mm --
10:55 10:55 Cloudy Cloudy 61°F16°C 61°F16°C 100% S 15 mphS 24 kph 10.0 miles16.1 km 30.15 in1021 hPa 0.00 in0.00 mm --
10:35 10:35 Mostly Cloudy Mostly Cloudy 61°F16°C 61°F16°C 100% S 14 mphS 22 kph 10.0 miles16.1 km 30.12 in1020 hPa 0.00 in0.00 mm --
10:15 10:15 Mostly Cloudy Mostly Cloudy 60°F16°C 60°F16°C 100% S 14 mphS 22 kph 10.0 miles16.1 km 30.12 in1020 hPa 0.00 in0.00 mm --
09:55 09:55 Cloudy Cloudy 60°F16°C 60°F16°C 100% S 16 mphS 26 kph 10.0 miles16.1 km 30.12 in1020 hPa 0.00 in0.00 mm --
09:35 09:35 Cloudy Cloudy 60°F16°C 60°F16°C 100% SW 13 mphSW 20 kph 10.0 miles16.1 km 30.15 in1021 hPa 0.00 in0.00 mm --
09:15 09:15 Cloudy Cloudy 60°F16°C 60°F16°C 100% S 15 mphS 24 kph 10.0 miles16.1 km 30.12 in1020 hPa 0.00 in0.00 mm --
08:55 08:55 Cloudy Cloudy 60°F16°C 60°F16°C 100% S 15 mphS 24 kph 10.0 miles16.1 km 30.12 in1020 hPa 0.00 in0.00 mm --
08:35 08:35 Cloudy Cloudy 60°F16°C 60°F16°C 100% S 15 mphS 24 kph 10.0 miles16.1 km 30.12 in1020 hPa 0.00 in0.00 mm --
08:15 08:15 Cloudy Cloudy 60°F16°C 60°F16°C 100% S 16 mphS 26 kph 10.0 miles16.1 km 30.12 in1020 hPa 0.00 in0.00 mm --
07:55 07:55 Cloudy With Light Rain Cloudy With Light Rain 60°F16°C 60°F16°C 100% S 21 mphS 33 kph 10.0 miles16.1 km 30.12 in1020 hPa 0.00 in0.00 mm --
07:35 07:35 Cloudy With Light Rain Cloudy With Light Rain 60°F16°C 60°F16°C 100% S 18 mphS 30 kph 10.0 miles16.1 km 30.12 in1020 hPa 0.00 in0.00 mm --
07:15 07:15 Cloudy Cloudy 60°F16°C 60°F16°C 100% S 18 mphS 30 kph 10.0 miles16.1 km 30.09 in1019 hPa 0.00 in0.00 mm --
06:55 06:55 Cloudy With Light Drizzle Cloudy With Light Drizzle 59°F15°C 59°F15°C 100% S 20 mphS 31 kph 10.0 miles16.1 km 30.12 in1020 hPa 0.00 in0.00 mm --
06:35 06:35 Cloudy With Light Rain Cloudy With Light Rain 59°F15°C 59°F15°C 100% S 14 mphS 22 kph 10.0 miles16.1 km 30.12 in1020 hPa 0.00 in0.00 mm --
06:15 06:15 Cloudy With Rain Cloudy With Rain 60°F15°C 60°F15°C 100% S 15 mphS 24 kph 7.0 miles11.3 km 30.12 in1020 hPa 0.00 in0.00 mm --
05:55 05:55 Cloudy With Light Rain Cloudy With Light Rain 60°F16°C 59°F15°C 98% S 16 mphS 26 kph 10.0 miles16.1 km 30.12 in1020 hPa 0.00 in0.00 mm --
05:35 05:35 Cloudy Cloudy 60°F16°C 58°F14°C 92% S 16 mphS 26 kph 10.0 miles16.1 km 30.12 in1020 hPa 0.00 in0.00 mm --
05:15 05:15 Cloudy Cloudy 59°F15°C 58°F14°C 94% S 17 mphS 28 kph 10.0 miles16.1 km 30.09 in1019 hPa 0.00 in0.00 mm --
04:55 04:55 Mostly Cloudy With Light Drizzle Mostly Cloudy With Light Drizzle 59°F15°C 57°F14°C 94% S 17 mphS 28 kph 10.0 miles16.1 km 30.09 in1019 hPa 0.00 in0.00 mm --
04:35 04:35 Cloudy With Light Rain Cloudy With Light Rain 59°F15°C 56°F13°C 89% S 15 mphS 24 kph 10.0 miles16.1 km 30.09 in1019 hPa 0.00 in0.00 mm --
04:15 04:15 Cloudy Cloudy 58°F15°C 55°F13°C 87% S 17 mphS 28 kph 10.0 miles16.1 km 30.12 in1020 hPa 0.00 in0.00 mm --
03:55 03:55 Mostly Cloudy Mostly Cloudy 58°F15°C 54°F12°C 86% S 14 mphS 22 kph 10.0 miles16.1 km 30.12 in1020 hPa 0.00 in0.00 mm --
03:35 03:35 Mostly Cloudy Mostly Cloudy 58°F14°C 54°F12°C 87% S 14 mphS 22 kph 10.0 miles16.1 km 30.15 in1021 hPa 0.00 in0.00 mm --
03:15 03:15 Mostly Cloudy Mostly Cloudy 57°F14°C 53°F12°C 85% S 13 mphS 20 kph 10.0 miles16.1 km 30.15 in1021 hPa 0.00 in0.00 mm --
02:55 02:55 Cloudy Cloudy 57°F14°C 52°F11°C 84% S 14 mphS 22 kph 10.0 miles16.1 km 30.15 in1021 hPa 0.00 in0.00 mm --
02:35 02:35 Cloudy Cloudy 56°F14°C 51°F11°C 83% S 12 mphS 19 kph 10.0 miles16.1 km 30.18 in1022 hPa 0.00 in0.00 mm --
02:15 02:15 Cloudy Cloudy 56°F14°C 51°F11°C 83% S 13 mphS 20 kph 10.0 miles16.1 km 30.18 in1022 hPa 0.00 in0.00 mm --
01:55 01:55 Cloudy Cloudy 56°F14°C 50°F10°C 81% S 13 mphS 20 kph 10.0 miles16.1 km 30.18 in1022 hPa 0.00 in0.00 mm --
01:35 01:35 Cloudy Cloudy 56°F14°C 50°F10°C 80% S 13 mphS 20 kph 10.0 miles16.1 km 30.18 in1022 hPa 0.00 in0.00 mm --
01:15 01:15 Mostly Cloudy Mostly Cloudy 56°F14°C 50°F10°C 79% S 14 mphS 22 kph 10.0 miles16.1 km 30.18 in1022 hPa 0.00 in0.00 mm --